Location: Payette
(44.0782°N, 116.9338°W)
Time: 15:06:05
(UTC-06:00)

N. Korean satellite - Pass Details

Date: 29 March 2019
Orbit: 457 x 508 km, 97.2° (Epoch: 21 April)

Event Time Altitude Azimuth Distance (km) Brightness Sun altitude
Rises 06:44:39 0° 37° (NE) 2,553 11.1 -9.7°
Reaches altitude 10° 06:48:48 10° 84° (E) 1,681 10.9 -9.0°
Maximum altitude 06:49:08 10° 90° (E) 1,674 10.8 -8.9°
Drops below altitude 10° 06:49:29 10° 95° (E) 1,682 10.7 -8.8°
Sets 06:53:39 0° 142° (SE) 2,571 10.6 -8.1°
